Location: Unspecified
(0.0000°N, 0.0000°E)
Time: 01:43:26
(UTC+00:00)

Vanguard 3 - Pass Details

Date: 11 December 2017
Orbit: 508 x 3264 km, 33.4° (Epoch: 21 January)

Event Time Altitude Azimuth Distance (km) Brightness Sun altitude
Rises 03:29:03 0° 231° (SW) 7,184 11.8 -32.8°
Reaches altitude 10° 03:37:20 10° 212° (SSW) 6,195 11.5 -30.9°
Maximum altitude 03:48:06 17° 178° (S) 5,327 11.5 -28.5°
Drops below altitude 10° 03:57:28 10° 144° (SE) 5,328 12.1 -26.4°
Sets 04:03:33 0° 124° (SE) 5,820 12.9 -25.1°
